Starlink 35612

operational
NORAD ID: 66128 Int'l Des: 2025-237 Owner: SPXS Country: US Constellation: starlink
LEOCIRCULAR

Starlink 35612について

説明を読み込み中...

リアルタイム位置

3D地球を読み込み中...

次回通過

高度履歴

Altitude vs Time

uPlot chart will show altitude changes over time

軌道要素

1 66128C 25237Q 25298.72062500 -.01179800 00000+0 -19269-2 0 2988
2 66128 53.1550 319.2645 0000956 78.5230 103.4909 16.03747895 16
Epoch: Oct 25, 2025 • Age: 146 hours

現在のステータス

高度 292.3 km
速度 7.73 km/s
衛星直下点 -10.69°S, 44.21°E
打ち上げ日 Oct 22, 2025
運用期間 9 days
タイプ internet

技術仕様

分類 Payload
質量 575.00 kg
乾燥質量 530.00 kg
総質量 575.00 kg
長さ 0.30 m
直径 4.10 m
スパン 29.00 m
形状 Box + pan
製造者 SPXS
バスタイプ Starlink V2MO
フェーズステータス In Orbit
所有者/国 SPXS/US

大規模コンステレーション

Loading constellations...